Weather History for Karlovy Vary, Czech Republic

Change the Weather History Date:

Wednesday, February 26, 2014

  Actual Average (EDQM) Record (EDQM)
Temperature  
Mean Temperature 32 °F -  
Max Temperature 39 °F 34 °F 55 °F (2008)
Min Temperature 26 °F 25 °F 14 °F (2011)
Degree Days  
Heating Degree Days 32    
Moisture  
Dew Point 31 °F    
Average Humidity 94    
Maximum Humidity 100    
Minimum Humidity 81    
Precipitation  
Precipitation 0.00 in - - ()
Sea Level Pressure  
Sea Level Pressure 30.02 in    
Wind  
Wind Speed 4 mph ()    
Max Wind Speed 8 mph    
Max Gust Speed -    
Visibility 1.1 miles    
Events Fog    
Averages and records for this station are not official NWS values.
T = Trace of Precipitation, MM = Missing Value Source: Averaged Metar Reports

Daily Weather History Graph

Daily Weather History Graph

Search for Another Location

Airport:

Trip Planner

Search our weather history database for the weather conditions in past years. The results will help you decide how hot, cold, wet, or windy it might be!

Date:

Astronomy

Feb. 26, 2014 Rise Set
Actual Time 6:58 AM CET 5:44 PM CET
Civil Twilight 6:25 AM CET 6:17 PM CET
Nautical Twilight 5:48 AM CET 6:55 PM CET
Astronomical Twilight 5:10 AM CET 7:32 PM CET
Moon 4:45 AM CET 2:26 PM CET
Length of Visible Light 11h 51m
Length of Day
10h 46m
Waning Crescent, 12% of the Moon is Illuminated
Feb 26
Waning Crescent
Mar 1
New
Mar 8
First Quarter
Mar 16
Full
Mar 24
Last Quarter

Hourly Weather History & Observations

Time (CET) Temp. Windchill Dew Point Humidity Pressure Visibility Wind Dir Wind Speed Gust Speed Precip Events Conditions
12:00 AM 29 °F - 28 °F 96%  in 2 mi SE 2.2 mph - -   Mist
12:00 AM 30.2 °F - 28.4 °F 93% 29.98 in 2.5 mi SE 2.3 mph - N/A   Mist
1:00 AM 29 °F - 29 °F 98%  in 2 mi South 2.2 mph - - Fog Patches of Fog
1:00 AM 28.4 °F - 28.4 °F 100% 29.98 in 2.5 mi SSE 2.3 mph - N/A Fog Mist
2:00 AM 29 °F - 28 °F 94%  in 2 mi East 2.2 mph - - Fog Patches of Fog
2:00 AM 28.4 °F - 28.4 °F 100% 29.98 in 2.5 mi East 2.3 mph - N/A Fog Mist
3:00 AM 28 °F - 27 °F 95%  in 2 mi SE 2.2 mph - -   Mist
3:00 AM 28.4 °F 24.6 °F 26.6 °F 93% 29.98 in 2.5 mi SSE 3.5 mph - N/A   Mist
4:00 AM 28 °F - 27 °F 94%  in 2 mi SE 4.5 mph - -   Mist
4:00 AM 28.4 °F 23.3 °F 28.4 °F 100% 29.98 in 2.5 mi SE 4.6 mph - N/A   Mist
5:00 AM 30 °F - 29 °F 95%  in 2 mi SSE 2.2 mph - -   Mist
5:00 AM 30.2 °F - 28.4 °F 93% 29.98 in 2.5 mi Variable 2.3 mph - N/A   Mist
6:00 AM 28 °F - 27 °F 95%  in 0 mi ENE 4.5 mph - - Fog Partial Fog
6:00 AM 28.4 °F 24.6 °F 28.4 °F 100% 29.98 in 0.2 mi ENE 3.5 mph - N/A Fog Light Freezing Fog
7:00 AM 28 °F - 27 °F 96%  in 0 mi SE 2.2 mph - - Fog Heavy Fog
7:00 AM 28.4 °F - 26.6 °F 93% 30.01 in 0.2 mi Variable 2.3 mph - N/A Fog Light Freezing Fog
7:30 AM 28.4 °F - 28.4 °F 100% 30.01 in 0.1 mi East 2.3 mph - N/A Fog Light Freezing Fog
8:00 AM 29 °F - 28 °F 97%  in 0 mi ESE 4.5 mph - - Fog Heavy Fog
8:00 AM 30.2 °F 25.4 °F 28.4 °F 93% 30.01 in 0.2 mi ESE 4.6 mph - N/A Fog Light Freezing Fog
8:30 AM 30.2 °F 25.4 °F 28.4 °F 93% 30.01 in 0.2 mi SE 4.6 mph - N/A Fog Light Freezing Fog
9:00 AM 30 °F - 29 °F 95%  in 0 mi SE 4.5 mph - - Fog Heavy Fog
9:00 AM 30.2 °F 25.4 °F 30.2 °F 100% 30.01 in 0.2 mi SE 4.6 mph - N/A Fog Light Freezing Fog
9:30 AM 30.2 °F 26.7 °F 30.2 °F 100% 30.01 in 0.1 mi SSE 3.5 mph - N/A Fog Light Freezing Fog
10:00 AM 31 °F - 30 °F 96%  in 0 mi SE 4.5 mph - - Fog Fog
10:00 AM 32.0 °F 28.7 °F 30.2 °F 93% 30.01 in 0.2 mi SE 3.5 mph - N/A Fog Light Freezing Fog
10:23 AM 32.0 °F 27.5 °F 32.0 °F 100% 30.04 in 0.5 mi ESE 4.6 mph - N/A Fog Fog
10:30 AM 32.0 °F 27.5 °F 32.0 °F 100% 30.04 in 0.7 mi ESE 4.6 mph - N/A   Overcast
11:00 AM 34 °F - 33 °F 97%  in 1 mi East 4.5 mph - - Fog Light Fog
11:00 AM 33.8 °F 29.6 °F 33.8 °F 100% 30.01 in 0.9 mi ESE 4.6 mph - N/A   Overcast
11:30 AM 33.8 °F 28.6 °F 33.8 °F 100% 30.01 in 1.1 mi ESE 5.8 mph - N/A   Overcast
12:00 PM 35 °F - 35 °F 97%  in 1 mi SE 4.5 mph - -   Mist
12:00 PM 35.6 °F 32.8 °F 33.8 °F 93% 30.04 in 1.2 mi SSE 3.5 mph - N/A   Overcast
12:30 PM 37.4 °F 33.8 °F 35.6 °F 93% 30.01 in 1.6 mi SE 4.6 mph - N/A   Overcast
1:00 PM 37 °F - 34 °F 86%  in 2 mi ESE 4.5 mph - -   Mist
1:00 PM 37.4 °F 34.9 °F 35.6 °F 93% 30.01 in - Variable 3.5 mph - N/A   Overcast
1:30 PM 37.4 °F 33.8 °F 33.8 °F 87% 30.01 in - SSE 4.6 mph - N/A   Mostly Cloudy
2:00 PM 38 °F - 34 °F 81%  in 2 mi ESE 6.7 mph - -   Mist
2:00 PM 37.4 °F 32.8 °F 33.8 °F 87% 30.01 in 2.5 mi ESE 5.8 mph - N/A   Mostly Cloudy
2:30 PM 37.4 °F 32.1 °F 33.8 °F 87% 30.01 in 2.8 mi ESE 6.9 mph - N/A   Mostly Cloudy
3:00 PM 38 °F - 34 °F 81%  in 3 mi East 6.7 mph - -   Mist
3:00 PM 37.4 °F 32.1 °F 33.8 °F 87% 30.01 in 3.1 mi East 6.9 mph - N/A   Mostly Cloudy
3:30 PM 37.4 °F 32.1 °F 33.8 °F 87% 30.01 in 3.1 mi SE 6.9 mph - N/A   Mostly Cloudy
4:00 PM 35 °F - 33 °F 89%  in 2 mi SE 6.7 mph - -   Mist
4:00 PM 35.6 °F 30.7 °F 33.8 °F 93% 30.01 in 1.7 mi SE 5.8 mph - N/A   Mostly Cloudy
4:30 PM 33.8 °F 29.6 °F 32.0 °F 93% 30.04 in 1.2 mi SSE 4.6 mph - N/A   Overcast
5:00 PM 33 °F - 32 °F 93%  in 1 mi SE 6.7 mph - -   Mist
5:00 PM 33.8 °F 27.7 °F 32.0 °F 93% 30.04 in 0.7 mi SE 6.9 mph - N/A   Overcast
5:17 PM 33.8 °F 29.6 °F 32.0 °F 93% 30.04 in 0.5 mi SE 4.6 mph - N/A Fog Fog
5:30 PM 33.8 °F 29.6 °F 32.0 °F 93% 30.04 in 0.7 mi SE 4.6 mph - N/A   Overcast
6:00 PM 32 °F - 31 °F 93%  in 0 mi SE 4.5 mph - - Fog Partial Fog
6:00 PM 32.0 °F 28.7 °F 30.2 °F 93% 30.04 in 0.5 mi SSE 3.5 mph - N/A Fog Fog
6:30 PM 32.0 °F 27.5 °F 30.2 °F 93% 30.04 in 0.4 mi SE 4.6 mph - N/A Fog Light Freezing Fog
7:00 PM 31 °F - 31 °F 97%  in 0 mi SE 6.7 mph - - Fog Heavy Fog
7:00 PM 32.0 °F 25.6 °F 30.2 °F 93% 30.04 in 0.4 mi SE 6.9 mph - N/A Fog Light Freezing Fog
7:30 PM 32.0 °F 24.8 °F 30.2 °F 93% 30.06 in 0.3 mi ESE 8.1 mph - N/A Fog Light Freezing Fog
8:00 PM 31 °F - 30 °F 96%  in 0 mi ESE 6.7 mph - - Fog Heavy Fog
8:00 PM 32.0 °F 26.4 °F 30.2 °F 93% 30.06 in 0.2 mi ESE 5.8 mph - N/A Fog Light Freezing Fog
8:30 PM 32.0 °F 26.4 °F 30.2 °F 93% 30.06 in 0.4 mi ESE 5.8 mph - N/A Fog Light Freezing Fog
9:00 PM 31 °F - 31 °F 99%  in 0 mi ESE 4.5 mph - - Fog Heavy Fog
9:00 PM 32.0 °F 27.5 °F 30.2 °F 93% 30.06 in 0.2 mi ESE 4.6 mph - N/A Fog Light Freezing Fog
10:00 PM 31 °F - 31 °F 97%  in 0 mi ESE 4.5 mph - - Fog Heavy Fog
10:00 PM 30.2 °F 26.7 °F 30.2 °F 100% 30.06 in 0.3 mi East 3.5 mph - N/A Fog Light Freezing Fog
11:00 PM 31 °F - 30 °F 96%  in 0 mi East 2.2 mph - - Fog Heavy Fog
11:00 PM 30.2 °F 26.7 °F 30.2 °F 100% 30.06 in 0.3 mi ESE 3.5 mph - N/A Fog Light Freezing Fog